Погода в Недокуре

Россия / Красноярский край     58°34′36″N   100°37′10″E
темп.,
°C
ветер,
м/с
пор.,
м/с
влажн.,
%
обл.,
%
осадки,
мм/ч
давл.,
гПа
погр.,
м
24 мая, вт
вт2401:00+10ююз22745 0.0 102017
04:00+9ююз227827 0.0 102128
07:00+15ююз24552 0.0 1022243
10:00+21зюз36372 0.0 10211951
13:00+23зюз46285 0.0 10202714
16:00+24з45255 0.0 10192951
19:00+20сз37505 0.0 1019555
22:00+13юз11714 0.0 102010
25 мая, ср
ср2501:00+11зсз11817 0.0 102010
04:00+10юз118640 0.0 102010
07:00+17юз12605 0.0 1019309
10:00+21з34313 0.0 10161708
13:00+23з3428100 0.0 10142111
16:00+23з4530100 0.0 10122074
19:00+13ссв3107794 0.0 1013404
22:00+11ссз3994100 2.0 1012422
26 мая, чт
чт2601:00+10зюз229693 3.9 101176
04:00+9сз389737 0.1 1012354
07:00+11ссз49760 0.1 1013786
10:00+16ссз464933 0.1 10121815
13:00+15с465599 1.5 10131508
16:00+15ссз3453100 1.3 10131422
19:00+13ссз266666 2.1 1014310
22:00+9ссз268498 0.1 1015121
27 мая, пт
пт2701:00+8св118179 0.1 101626
04:00+7св1276100 0.0 101662
07:00+8св2572100 0.3 1017495
10:00+10св2556100 1.0 10161434
13:00+13св353789 1.1 10152156
16:00+14св5535100 0.0 10152182
19:00+12св574077 0.0 10161777
22:00+5ссв226066 0.0 101834
28 мая, сб
сб2801:00+3с11695 0.0 101913
04:00+2ссз22720 0.0 102121
07:00+8ссв23450 0.0 1021414
10:00+12св353026 0.0 10212217
13:00+14ссв342794 0.0 10192574
16:00+15св342692 0.0 10182634
19:00+14св243676 0.0 1018280
22:00+7всв115385 0.0 101910